Wind_Speed
14 14 15 14 14 14 13 13 14 13 12 12 12 12 13 13 12 12 10 2 4 5 7 13 21 16 16 5 4 4 3 5 7 4 4 10 5 7 7 19 7 15 12 24 31
15 15 15 15 15 15 14 14 14 14 14 12 11 11 12 14 14 11 7 9 7 4 8 14 24 17 10 5 4 3 3 7 18 12 4 12 10 16 7 16 4 15 13 35 31
17 17 17 16 16 16 16 15 14 14 14 14 12 10 10 11 13 1 2 6 8 5 5 5 5 20 10 7 9 6 4 7 13 25 13 10 13 17 12 9 11 30 34 40 34
19 19 18 18 17 17 16 16 15 14 14 14 13 10 8 6 4 6 8 5 4 7 8 10 14 11 7 6 16 4 17 11 13 22 16 9 11 16 17 9 19 25 41 43 35
20 20 20 20 18 18 17 16 16 14 13 14 13 11 7 6 15 8 10 10 8 8 10 11 10 4 2 6 2 6 4 11 12 26 22 15 17 11 14 5 15 29 40 40 35
21 21 20 20 20 19 18 17 15 15 13 13 13 11 7 6 10 14 14 11 9 8 4 7 3 8 5 3 3 7 8 4 19 20 13 12 6 10 5 12 24 36 37 37 35
21 21 21 21 20 19 18 16 17 17 14 12 12 12 12 22 10 11 14 11 10 9 7 5 7 7 11 2 7 9 4 6 16 8 4 11 3 2 16 22 29 30 31 33 35
21 22 22 21 21 20 17 17 18 14 11 10 10 11 12 16 21 15 13 17 14 12 11 7 9 15 3 5 7 5 5 4 3 9 8 5 5 10 22 27 25 26 26 30 34
21 20 21 21 20 19 16 16 13 6 5 6 6 7 11 9 19 20 24 22 18 14 14 13 11 4 3 4 5 6 3 2 3 9 7 2 2 14 25 25 24 25 27 28 34
23 22 21 19 18 15 17 12 4 3 2 5 7 4 14 4 5 14 14 25 23 18 11 7 5 3 4 4 3 1 2 1 6 4 4 7 6 15 26 24 25 29 27 31 34
22 23 23 20 16 11 14 1 3 3 6 8 4 10 15 10 15 15 9 10 15 8 6 2 3 6 10 7 5 2 1 6 4 2 1 3 2 15 27 22 22 27 29 34 36
21 22 22 19 11 6 8 9 11 9 13 16 19 28 32 31 12 16 7 9 9 9 6 2 7 9 6 7 5 4 4 7 5 5 6 6 8 9 22 30 36 35 33 34 36
20 21 21 18 2 4 8 8 5 6 5 13 9 15 22 16 19 26 9 5 4 8 8 13 10 7 6 4 5 4 6 5 7 2 4 2 6 6 12 18 29 32 37 38 44
20 20 20 17 1 1 1 2 5 7 4 7 4 3 3 7 6 32 12 6 2 15 7 5 7 7 5 7 8 5 8 5 6 1 4 4 5 4 6 19 23 31 34 36 39
18 17 19 15 12 7 6 7 5 2 1 1 2 4 2 8 7 8 18 13 6 4 7 9 7 8 12 15 7 9 5 9 7 5 5 2 3 6 4 8 16 26 36 40 43
16 14 18 14 13 3 4 3 3 5 6 5 4 8 7 2 3 4 5 11 8 3 2 6 2 5 8 7 9 8 4 3 2 3 1 18 6 17 6 9 15 25 36 41 43
16 13 15 15 4 5 4 1 4 3 6 6 4 6 3 7 7 5 4 5 6 4 1 3 5 3 4 2 2 4 6 2 3 1 9 7 6 17 10 14 15 24 39 43 44
17 15 11 7 5 4 2 4 2 1 3 3 5 5 6 8 6 9 3 0 3 5 3 6 11 9 3 10 8 8 9 6 7 4 3 3 7 10 9 10 20 33 43 41 42
16 11 2 10 8 5 2 3 5 1 4 6 5 6 7 6 3 8 7 8 7 5 6 7 8 6 8 7 11 6 5 8 5 1 2 4 8 11 4 5 10 23 32 35 38
16 8 13 9 5 4 5 3 3 3 4 4 3 3 3 6 6 6 5 8 8 7 4 3 3 7 8 7 7 9 7 4 2 6 5 5 5 6 5 7 6 14 25 33 39
8 2 7 6 3 3 3 5 4 6 7 2 1 2 2 3 2 4 5 5 8 9 5 3 4 6 1 6 12 1 3 3 4 6 8 4 6 8 12 8 14 18 33 40 39
6 2 5 6 2 2 1 3 4 8 8 3 1 2 3 3 3 5 6 5 15 7 4 3 4 5 14 4 5 9 10 9 6 6 2 3 9 6 11 9 16 22 26 31 36
11 5 5 4 1 2 5 4 4 3 3 1 2 2 0 3 4 4 5 5 16 7 6 6 3 4 3 5 6 3 3 4 4 3 7 5 6 4 6 7 19 21 30 33 33
6 4 3 3 5 3 4 4 6 11 1 2 0 5 4 4 5 2 5 3 12 10 13 4 2 4 5 4 4 5 2 3 5 3 4 7 10 9 8 8 7 22 32 33 33
5 1 4 3 3 3 2 3 4 5 3 4 4 3 3 3 3 3 3 5 5 13 10 4 2 2 8 12 5 7 6 5 6 7 6 7 11 11 12 11 14 23 29 33 27
2 3 4 5 7 4 3 3 3 5 2 4 5 2 4 5 4 2 3 4 3 7 7 5 3 4 5 4 4 9 9 8 7 2 4 7 8 7 12 13 14 22 23 31 39
1 1 2 3 4 2 4 5 8 6 4 3 6 6 6 3 5 3 2 4 5 0 3 3 3 5 5 6 8 2 2 4 3 2 3 3 5 7 6 9 19 27 29 36 39
Wind_Direction
352 347 343 338 332 325 321 318 313 312 310 311 313 310 307 304 303 304 293 263 158 160 147 165 179 189 200 241 255 124 94 140 187 228 200 164 195 170 162 142 168 178 166 168 165
351 348 344 339 334 328 321 316 311 308 306 304 307 306 307 306 303 297 277 262 236 206 189 195 184 191 208 241 258 188 139 178 191 207 186 167 169 163 136 163 131 167 153 158 163
349 347 344 341 335 329 324 317 310 303 300 301 301 304 303 306 315 6 180 221 224 191 235 217 189 191 221 197 209 199 218 168 209 202 213 166 191 205 145 196 190 160 160 163 166
347 345 343 340 335 329 323 318 312 304 296 292 298 295 292 286 252 162 76 29 206 198 208 209 199 195 218 201 197 235 236 203 184 200 188 178 187 201 171 205 206 189 170 168 173
344 342 340 338 333 328 322 316 310 301 292 287 289 291 281 241 243 237 270 301 259 228 212 204 209 240 271 295 20 214 266 200 194 166 187 190 205 187 188 210 179 168 164 169 175
342 339 336 334 330 327 322 317 308 295 283 279 281 281 270 241 256 255 263 258 233 233 231 221 203 321 289 329 44 296 9 102 155 156 189 176 143 163 164 169 158 165 168 173 176
339 338 335 332 326 325 323 315 304 294 288 274 268 272 258 239 230 233 234 223 226 244 245 247 297 323 322 345 343 306 35 32 116 111 86 122 330 270 168 164 155 165 169 175 180
335 336 336 334 325 323 321 319 312 302 277 268 261 266 258 254 236 219 219 228 231 232 254 242 284 306 272 320 12 25 49 125 358 131 159 183 242 135 157 154 159 168 175 183 190
332 334 334 335 328 322 321 328 321 310 263 267 268 239 259 239 242 233 232 237 232 245 256 264 285 240 347 72 9 8 143 120 161 161 149 101 185 163 168 165 168 177 181 190 195
330 332 335 337 330 325 325 329 331 349 275 268 240 269 249 195 235 213 225 229 235 247 265 232 205 99 63 73 214 255 41 57 247 170 164 163 225 169 175 175 179 180 185 194 200
326 329 333 337 334 343 339 334 341 266 293 240 230 250 265 253 279 238 252 218 226 214 175 207 116 198 225 183 192 211 271 272 273 138 68 338 109 186 181 179 184 189 189 193 199
325 326 331 339 337 30 46 80 38 334 297 280 264 256 258 265 287 247 242 195 170 185 138 66 211 220 221 160 175 200 244 260 291 228 159 195 221 212 185 192 189 188 191 195 196
324 324 327 341 357 108 92 58 8 310 262 290 255 255 264 250 232 255 213 186 164 176 181 205 218 196 194 208 187 188 195 228 224 322 300 141 267 170 191 199 202 198 193 195 195
322 322 325 338 193 332 101 344 274 287 32 280 278 333 255 206 242 236 218 203 197 193 157 213 233 190 186 222 164 236 212 236 239 221 256 118 282 208 203 207 197 195 195 196 198
317 317 316 321 308 308 276 288 271 290 325 292 31 62 232 191 302 212 225 203 198 165 126 222 189 179 213 228 163 235 192 198 228 221 317 232 282 264 142 217 204 200 195 198 200
320 315 306 309 306 275 261 321 150 54 246 342 41 343 8 349 295 329 146 187 206 194 54 220 237 172 203 225 191 234 120 52 24 102 264 250 178 276 200 211 210 200 198 195 199
330 314 298 297 286 261 275 1 55 153 330 349 334 343 12 325 5 332 155 148 155 120 170 328 239 212 180 244 168 126 91 283 337 152 232 229 212 238 255 235 208 192 196 195 196
336 314 299 286 202 185 193 59 185 289 324 7 328 319 76 358 359 341 45 250 78 91 129 182 260 165 194 190 187 191 159 166 187 215 241 113 218 251 240 259 233 199 197 190 192
342 338 53 139 134 113 124 89 205 239 302 321 343 57 4 348 67 5 18 27 47 17 185 172 255 295 186 195 167 221 170 186 185 337 26 244 283 300 281 315 166 179 186 190 193
348 56 117 129 120 89 76 223 233 234 332 349 9 72 42 347 38 28 21 39 348 353 198 301 289 222 237 179 229 166 173 88 351 164 235 260 261 240 271 244 150 173 185 195 197
346 54 173 188 147 34 129 234 281 293 329 203 194 57 77 26 12 2 335 9 2 341 29 30 137 279 76 204 213 156 180 101 141 155 202 227 251 224 239 200 192 190 194 197 194
11 11 176 184 8 28 156 212 302 281 302 330 198 113 114 69 57 24 20 35 8 358 15 308 137 233 239 235 201 187 195 186 196 246 242 198 247 262 241 235 194 200 201 205 206
343 305 184 224 128 313 310 292 252 286 231 41 5 58 58 82 86 75 327 325 16 42 353 322 8 350 43 354 352 232 215 164 124 94 209 194 267 265 278 269 206 200 206 207 211
1 359 342 49 73 95 2 294 327 326 27 66 354 76 79 73 5 89 359 325 344 18 20 95 97 139 204 260 274 285 300 179 147 142 211 209 240 279 261 236 212 199 219 219 217
9 3 358 325 344 356 275 283 327 329 358 41 57 71 132 87 92 28 7 328 349 7 16 66 41 306 245 250 231 248 253 240 173 211 172 234 208 231 234 215 211 216 217 210 219
360 10 354 311 311 352 338 342 348 343 343 327 104 112 108 115 139 126 52 46 322 340 22 8 316 345 275 268 319 255 250 239 231 247 244 267 249 233 261 198 190 208 211 219 231
260 270 269 302 332 359 1 338 357 1 298 7 150 117 97 143 141 173 197 260 220 238 311 34 26 358 272 317 315 254 248 289 98 142 207 285 267 322 235 210 196 204 209 214 218
Height
1519 1516 1514 1512 1509 1507 1506 1504 1503 1502 1501 1500 1499 1498 1496 1495 1494 1493 1492 1493 1493 1493 1493 1494 1497 1500 1501 1500 1502 1502 1510 1518 1515 1510 1498 1498 1501 1505 1508 1510 1512 1514 1514 1517 1526
1519 1516 1514 1511 1508 1505 1503 1502 1501 1499 1498 1497 1497 1496 1495 1493 1491 1491 1492 1490 1491 1492 1492 1492 1496 1500 1501 1499 1501 1500 1508 1502 1488 1485 1487 1492 1498 1502 1506 1510 1512 1514 1516 1520 1526
1518 1515 1512 1509 1506 1504 1501 1499 1498 1496 1495 1494 1494 1494 1494 1492 1490 1489 1488 1488 1489 1492 1492 1494 1497 1499 1501 1499 1497 1495 1497 1489 1488 1487 1488 1492 1496 1501 1504 1510 1508 1506 1513 1520 1526
1517 1513 1510 1508 1505 1502 1499 1497 1495 1494 1492 1491 1491 1491 1492 1492 1496 1487 1487 1488 1489 1492 1493 1495 1498 1500 1496 1495 1489 1494 1483 1487 1485 1487 1491 1493 1495 1498 1500 1501 1503 1507 1507 1516 1524
1516 1513 1509 1506 1503 1500 1497 1495 1493 1491 1490 1489 1488 1488 1490 1490 1486 1486 1486 1488 1488 1491 1493 1494 1493 1490 1492 1488 1485 1486 1481 1480 1481 1484 1488 1492 1496 1499 1501 1502 1504 1509 1514 1518 1524
1515 1511 1508 1504 1501 1498 1495 1492 1490 1488 1487 1486 1486 1486 1487 1488 1483 1483 1483 1484 1486 1487 1489 1490 1489 1488 1488 1487 1486 1481 1479 1481 1480 1485 1492 1495 1497 1498 1503 1504 1506 1509 1515 1520 1524
1512 1509 1506 1502 1498 1495 1492 1489 1486 1484 1484 1483 1483 1483 1483 1478 1480 1480 1480 1481 1482 1484 1485 1487 1487 1488 1487 1486 1485 1481 1482 1481 1484 1489 1495 1500 1506 1501 1503 1506 1508 1513 1518 1523 1527
1511 1507 1503 1500 1495 1492 1488 1486 1482 1480 1480 1480 1480 1480 1476 1474 1475 1477 1478 1478 1480 1481 1482 1484 1485 1485 1485 1485 1485 1486 1490 1499 1490 1490 1496 1499 1513 1505 1507 1507 1512 1515 1519 1523 1526
1508 1505 1501 1497 1493 1489 1486 1483 1480 1478 1478 1478 1479 1479 1473 1470 1470 1474 1475 1475 1477 1480 1481 1482 1485 1484 1485 1491 1501 1498 1506 1499 1494 1488 1492 1495 1503 1503 1504 1507 1511 1516 1519 1523 1525
1505 1502 1499 1495 1490 1487 1483 1481 1479 1478 1477 1477 1477 1480 1468 1466 1467 1468 1470 1472 1474 1476 1480 1480 1481 1485 1492 1499 1521 1507 1503 1499 1500 1488 1487 1495 1497 1498 1501 1505 1508 1512 1517 1521 1525
1503 1500 1496 1493 1489 1486 1482 1480 1481 1479 1476 1474 1473 1469 1463 1464 1464 1464 1467 1468 1470 1474 1480 1478 1486 1495 1488 1492 1492 1494 1498 1503 1491 1484 1489 1493 1494 1495 1495 1503 1508 1510 1512 1516 1519
1501 1498 1494 1491 1488 1487 1484 1483 1488 1488 1477 1467 1466 1463 1459 1462 1465 1460 1464 1466 1467 1473 1473 1482 1490 1480 1481 1487 1491 1495 1500 1501 1491 1485 1489 1492 1493 1486 1490 1489 1492 1497 1502 1508 1514
1500 1496 1492 1490 1487 1487 1486 1485 1486 1485 1481 1461 1458 1456 1455 1458 1458 1454 1460 1461 1462 1470 1471 1477 1476 1475 1481 1484 1491 1496 1502 1498 1497 1486 1485 1489 1493 1486 1486 1486 1492 1493 1494 1500 1503
1497 1494 1491 1488 1489 1486 1486 1485 1485 1483 1492 1466 1457 1455 1454 1454 1453 1447 1454 1459 1460 1465 1470 1474 1468 1474 1480 1483 1486 1502 1487 1486 1490 1496 1507 1484 1516 1487 1481 1477 1479 1487 1492 1496 1500
1494 1492 1489 1487 1486 1486 1485 1483 1483 1484 1500 1459 1455 1456 1452 1454 1450 1446 1449 1456 1459 1460 1467 1474 1470 1474 1479 1476 1479 1487 1479 1486 1486 1494 1494 1488 1506 1480 1479 1483 1478 1478 1481 1488 1493
1491 1489 1486 1486 1483 1483 1482 1482 1483 1496 1497 1463 1458 1458 1454 1452 1449 1447 1448 1453 1455 1461 1463 1466 1463 1465 1466 1468 1473 1473 1482 1487 1490 1503 1523 1486 1504 1477 1483 1470 1466 1468 1472 1476 1485
1488 1485 1483 1481 1482 1481 1481 1482 1496 1500 1469 1474 1469 1463 1462 1460 1455 1451 1450 1457 1463 1476 1476 1469 1465 1462 1464 1472 1471 1476 1496 1525 1525 1527 1511 1484 1500 1475 1452 1447 1448 1452 1458 1467 1474
1485 1481 1479 1478 1479 1480 1481 1485 1494 1480 1476 1471 1470 1465 1467 1467 1463 1459 1455 1460 1457 1464 1480 1484 1482 1463 1459 1465 1476 1480 1490 1520 1530 1527 1506 1490 1499 1466 1442 1443 1439 1444 1450 1460 1468
1482 1478 1476 1477 1480 1480 1481 1496 1491 1483 1478 1475 1472 1475 1478 1470 1468 1467 1469 1469 1468 1465 1477 1485 1479 1454 1452 1456 1462 1472 1489 1478 1499 1499 1511 1496 1470 1447 1437 1435 1435 1440 1450 1457 1464
1482 1480 1480 1481 1481 1481 1485 1491 1487 1479 1477 1474 1478 1477 1484 1479 1479 1480 1477 1475 1472 1467 1465 1467 1476 1457 1449 1451 1454 1461 1465 1492 1504 1516 1519 1500 1483 1471 1445 1439 1440 1443 1447 1452 1456
1483 1482 1483 1483 1483 1483 1493 1491 1482 1476 1476 1476 1477 1479 1481 1483 1480 1482 1483 1475 1471 1468 1465 1468 1473 1464 1452 1456 1459 1465 1471 1474 1484 1492 1499 1508 1489 1447 1440 1433 1435 1435 1438 1439 1447
1485 1486 1484 1485 1487 1489 1491 1485 1480 1477 1476 1475 1474 1474 1480 1483 1483 1481 1484 1479 1474 1471 1476 1469 1478 1479 1459 1447 1445 1449 1460 1464 1483 1489 1491 1488 1469 1430 1427 1425 1428 1429 1434 1439 1445
1488 1486 1484 1485 1492 1493 1488 1484 1481 1477 1475 1475 1476 1475 1477 1481 1486 1486 1483 1479 1476 1474 1479 1473 1483 1490 1464 1459 1451 1451 1451 1454 1466 1473 1481 1486 1474 1428 1425 1424 1422 1425 1426 1432 1439
1492 1491 1486 1485 1489 1490 1491 1486 1482 1476 1475 1475 1475 1476 1479 1484 1484 1487 1485 1478 1478 1476 1473 1472 1486 1490 1495 1482 1474 1465 1455 1449 1460 1480 1470 1471 1453 1436 1425 1423 1421 1423 1424 1426 1432
1495 1495 1495 1496 1491 1492 1491 1487 1483 1481 1476 1476 1478 1479 1480 1488 1487 1489 1486 1484 1478 1477 1474 1479 1485 1483 1481 1471 1468 1461 1455 1449 1454 1453 1461 1446 1447 1430 1421 1417 1415 1416 1419 1423 1425
1495 1496 1496 1494 1492 1490 1489 1486 1483 1483 1479 1477 1479 1479 1480 1485 1487 1488 1487 1489 1488 1482 1482 1484 1489 1489 1478 1461 1458 1458 1446 1442 1440 1435 1441 1440 1437 1415 1410 1413 1412 1412 1414 1415 1416
1495 1495 1495 1494 1494 1493 1494 1488 1486 1484 1479 1477 1478 1480 1483 1484 1483 1484 1483 1484 1486 1488 1490 1490 1494 1495 1482 1467 1461 1456 1440 1437 1434 1435 1437 1442 1428 1423 1414 1409 1405 1405 1405 1404 1403